This is the latest recevied weather packets stored in our database for station/object IZ7EXI-13. If no packets are shown the sender has not sent any weather packets the latest 10 day(s).
| Time | Temp. | Humidity | Pressure | Rain* | Wind** | Luminosity | Snow |
|---|---|---|---|---|---|---|---|
| 1777885299 | 21.11° C | 54% | 1021.7 hPa | - | - | - | - |
| 1777884431 | 21.11° C | 50% | 1021.7 hPa | - | - | - | - |
| 1777884427 | 21.11° C | 50% | 1021.7 hPa | - | - | - | - |
| 1777884398 | 21.11° C | 50% | 1021.7 hPa | - | - | - | - |
| 1777883531 | 21.67° C | 51% | 1021.8 hPa | - | - | - | - |
| 1777883522 | 21.67° C | 51% | 1021.8 hPa | - | - | - | - |
| 1777883498 | 21.67° C | 51% | 1021.8 hPa | - | - | - | - |
| 1777882627 | 21.11° C | 47% | 1021.8 hPa | - | - | - | - |
| 1777882598 | 21.11° C | 47% | 1021.8 hPa | - | - | - | - |
| 1777881731 | 21.67° C | 47% | 1021.7 hPa | - | - | - | - |
| 1777881698 | 21.67° C | 47% | 1021.7 hPa | - | - | - | - |
| 1777880828 | 21.67° C | 42% | 1021.8 hPa | - | - | - | - |
| 1777880803 | 21.67° C | 42% | 1021.8 hPa | - | - | - | - |
| 1777879927 | 21.11° C | 42% | 1021.8 hPa | - | - | - | - |
| 1777879903 | 21.11° C | 42% | 1021.8 hPa | - | - | - | - |
| 1777879021 | 21.11° C | 42% | 1021.8 hPa | - | - | - | - |
| 1777878997 | 21.11° C | 42% | 1021.8 hPa | - | - | - | - |
| 1777878097 | 21.11° C | 42% | 1021.6 hPa | - | - | - | - |
| 1777877230 | 20.56° C | 43% | 1021.5 hPa | - | - | - | - |
| 1777877197 | 20.56° C | 43% | 1021.5 hPa | - | - | - | - |
| 1777876320 | 20° C | 44% | 1021.4 hPa | - | - | - | - |
| 1777876296 | 20° C | 44% | 1021.4 hPa | - | - | - | - |
| 1777875396 | 19.44° C | 47% | 1021.4 hPa | - | - | - | - |
| 1777874496 | 18.33° C | 51% | 1021.5 hPa | - | - | - | - |
| 1777873627 | 17.22° C | 54% | 1021.2 hPa | - | - | - | - |
* Rain since midnight (hover to see other rain measurements)
** Current wind speed in m/s (hover to see current wind gust speed)